Anderson, SC

2:42 PM EDT on July 25, 2016 (GMT -0400)
Anderson Regional

Weather History for KAND - February, 2013

Change the Weather History Date:

Tuesday, February 19, 2013

  Actual Average Record
Temperature  
Mean Temperature 46 °F -  
Max Temperature 54 °F 58 °F 74 °F (1984)
Min Temperature 37 °F 36 °F 11 °F (1958)
Degree Days  
Heating Degree Days 20    
Moisture  
Dew Point 35 °F    
Average Humidity 77    
Maximum Humidity 100    
Minimum Humidity 30    
Precipitation  
Precipitation 0.21 in - - ()
Sea Level Pressure  
Sea Level Pressure 30.05 in    
Wind  
Wind Speed 6 mph (SW)    
Max Wind Speed 21 mph    
Max Gust Speed 30 mph    
Visibility 8 miles    
Events Rain    
Averages and records for this station are not official NWS values.
T = Trace of Precipitation, MM = Missing Value Source: NWS Daily Summary

Daily Weather History Graph

Daily Weather History Graph

Search for Another Location

Airport or City:

Trip Planner

Search our weather history database for the weather conditions in past years. The results will help you decide how hot, cold, wet, or windy it might be!

Date:

Astronomy

Feb. 19, 2013 Rise Set
Actual Time 7:11 AM EST 6:18 PM EST
Civil Twilight 6:45 AM EST 6:43 PM EST
Nautical Twilight 6:16 AM EST 7:13 PM EST
Astronomical Twilight 5:47 AM EST 7:42 PM EST
Moon 12:56 PM EST (2/19) 2:34 AM EST (2/19)
Length of Visible Light 11h 57m
Length of Day
11h 06m
Waxing Gibbous, 67% of the Moon is Illuminated
Feb 19
Waxing Gibbous
Feb 25
Full
Mar 4
Last Quarter
Mar 11
New
Mar 19
First Quarter

Hourly Weather History & Observations

Time (EST) Temp. Windchill Dew Point Humidity Pressure Visibility Wind Dir Wind Speed Gust Speed Precip Events Conditions
12:56 AM 42.1 °F 38.4 °F 26.1 °F 53% 30.18 in 10.0 mi South 5.8 mph - N/A   Overcast
1:56 AM 41.0 °F 35.8 °F 27.0 °F 57% 30.14 in 10.0 mi SSE 8.1 mph - N/A   Mostly Cloudy
2:56 AM 42.1 °F 38.4 °F 28.0 °F 58% 30.12 in 10.0 mi SE 5.8 mph - N/A   Overcast
3:56 AM 41.0 °F - 27.0 °F 57% 30.11 in 10.0 mi Calm Calm - N/A   Overcast
4:56 AM 41.0 °F 39.0 °F 28.0 °F 60% 30.11 in 10.0 mi NNW 3.5 mph - N/A   Overcast
5:12 AM 41.0 °F - 28.4 °F 61% 30.12 in 10.0 mi Calm Calm - 0.00 in Rain Light Rain
5:56 AM 37.9 °F - 35.1 °F 89% 30.10 in 9.0 mi Calm Calm - 0.03 in Rain Rain
6:56 AM 37.9 °F - 36.0 °F 93% 30.10 in 7.0 mi Calm Calm - 0.06 in Rain Light Rain
7:31 AM 37.4 °F - 37.4 °F 100% 30.09 in 7.0 mi Calm Calm - 0.05 in Rain Light Rain
7:39 AM 37.4 °F - 37.4 °F 100% 30.09 in 5.0 mi Calm Calm - 0.06 in Rain Light Rain
7:53 AM 37.4 °F 34.9 °F 37.4 °F 100% 30.08 in 5.0 mi East 3.5 mph - 0.08 in Rain Light Rain
7:56 AM 37.9 °F - 37.0 °F 97% 30.09 in 5.0 mi Calm Calm - 0.08 in Rain Light Rain
8:13 AM 37.4 °F - 37.4 °F 100% 30.09 in 3.0 mi Calm Calm - 0.01 in Rain Light Rain
8:46 AM 37.4 °F 34.9 °F 37.4 °F 100% 30.07 in 2.5 mi SE 3.5 mph - 0.03 in Rain Light Rain
8:56 AM 37.9 °F 35.5 °F 37.9 °F 100% 30.08 in 3.0 mi SSE 3.5 mph - 0.04 in Rain Light Rain
9:14 AM 39.2 °F 37.0 °F 37.4 °F 93% 30.06 in 5.0 mi SSE 3.5 mph - 0.00 in Rain Light Rain
9:35 AM 39.2 °F 35.0 °F 39.2 °F 100% 30.06 in 4.0 mi SSE 5.8 mph - 0.01 in Rain Light Rain
10:17 AM 39.2 °F 35.0 °F 39.2 °F 100% 30.04 in 10.0 mi South 5.8 mph - 0.00 in   Overcast
10:45 AM 41.0 °F 37.1 °F 39.2 °F 93% 30.05 in 10.0 mi WSW 5.8 mph - 0.00 in   Overcast
10:56 AM 41.0 °F 36.4 °F 39.9 °F 96% 30.05 in 9.0 mi WSW 6.9 mph - 0.00 in Rain Light Rain
11:05 AM 42.8 °F 38.0 °F 41.0 °F 93% 30.05 in 10.0 mi SW 8.1 mph - 0.00 in Rain Light Rain
11:56 AM 43.0 °F 37.7 °F 41.0 °F 93% 30.03 in 9.0 mi SW 9.2 mph - 0.00 in   Overcast
12:56 PM 45.0 °F 39.7 °F 43.0 °F 93% 30.01 in 10.0 mi WSW 10.4 mph - N/A   Overcast
1:34 PM 46.4 °F 41.9 °F 44.6 °F 93% 29.99 in 10.0 mi WSW 9.2 mph - N/A   Overcast
1:56 PM 48.9 °F - 44.1 °F 83% 29.98 in 10.0 mi WSW 15.0 mph 20.7 mph N/A   Overcast
2:25 PM 51.8 °F - 42.8 °F 71% 29.96 in 10.0 mi WSW 13.8 mph 23.0 mph N/A   Mostly Cloudy
2:39 PM 51.8 °F - 42.8 °F 71% 29.96 in 10.0 mi WSW 17.3 mph 23.0 mph N/A   Scattered Clouds
2:56 PM 51.1 °F - 42.1 °F 71% 29.96 in 10.0 mi WSW 17.3 mph - N/A   Partly Cloudy
3:56 PM 53.1 °F - 42.1 °F 66% 29.94 in 10.0 mi SW 15.0 mph - N/A   Clear
4:56 PM 54.0 °F - 37.0 °F 53% 29.94 in 10.0 mi WSW 20.7 mph 29.9 mph N/A   Clear
5:56 PM 54.0 °F - 35.1 °F 49% 29.96 in 10.0 mi WSW 19.6 mph 29.9 mph N/A   Clear
7:56 PM 48.0 °F - 24.1 °F 39% 30.03 in 10.0 mi West 9.2 mph - N/A   Clear
9:56 PM 45.0 °F 38.9 °F 18.0 °F 34% 30.05 in 10.0 mi West 12.7 mph - N/A   Clear
10:56 PM 45.0 °F 38.9 °F 15.1 °F 30% 30.06 in 10.0 mi West 12.7 mph - N/A   Clear
11:56 PM 42.1 °F 35.2 °F 17.1 °F 37% 30.08 in 10.0 mi West 12.7 mph - N/A   Clear